Wetterdaten: Donnerstag, 05.11.2015
Datum Zeit Auen-Temp. Temp gefhlt Luftfeuchte Luftdruck Regen Wind Richtung Richtung Taupunkt Windben
05.11.2015 00:00 3,2 C 3,0 C 88 % 1020,5 hPa 0,0 mm 0,0 km/h (0 Bft) S-SW 202 1,4 C 0,0 km/h (0 Bft)
05.11.2015 00:05 3,1 C 3,0 C 88 % 1020,5 hPa 0,0 mm 0,0 km/h (0 Bft) S-SW 202 1,3 C 0,0 km/h (0 Bft)
05.11.2015 00:10 3,2 C 3,0 C 88 % 1020,6 hPa 0,0 mm 0,0 km/h (0 Bft) S-SO 157 1,4 C 0,0 km/h (0 Bft)
05.11.2015 00:15 4,0 C 3,8 C 84 % 1020,6 hPa 0,0 mm 0,0 km/h (0 Bft) SO 135 1,5 C 0,0 km/h (0 Bft)
05.11.2015 00:20 3,3 C 3,3 C 89 % 1020,6 hPa 0,0 mm 0,0 km/h (0 Bft) SO 135 1,7 C 0,0 km/h (0 Bft)
05.11.2015 00:25 3,5 C 3,4 C 89 % 1020,6 hPa 0,0 mm 0,0 km/h (0 Bft) O-SO 112 1,9 C 0,0 km/h (0 Bft)
05.11.2015 00:30 3,4 C 3,3 C 89 % 1020,7 hPa 0,0 mm 0,0 km/h (0 Bft) SO 135 1,8 C 0,0 km/h (0 Bft)
05.11.2015 00:35 3,7 C 3,5 C 85 % 1020,7 hPa 0,0 mm 0,3 km/h (0 Bft) S 180 1,4 C 0,0 km/h (0 Bft)
05.11.2015 00:40 4,0 C 3,8 C 85 % 1020,7 hPa 0,0 mm 0,3 km/h (0 Bft) S-SO 157 1,7 C 0,0 km/h (0 Bft)
05.11.2015 00:45 3,4 C 3,4 C 90 % 1020,7 hPa 0,0 mm 0,3 km/h (0 Bft) O-SO 112 1,9 C 0,0 km/h (0 Bft)
05.11.2015 00:50 3,4 C 3,3 C 90 % 1020,6 hPa 0,0 mm 0,3 km/h (0 Bft) SO 135 1,9 C 3,4 km/h (1 Bft)
05.11.2015 00:55 3,5 C 3,3 C 90 % 1020,6 hPa 0,0 mm 0,0 km/h (0 Bft) S 180 2,0 C 0,0 km/h (0 Bft)
05.11.2015 01:00 3,0 C 3,0 C 90 % 1020,6 hPa 0,0 mm 0,0 km/h (0 Bft) W-SW 247 1,5 C 0,0 km/h (0 Bft)
05.11.2015 01:05 3,1 C 3,0 C 90 % 1020,6 hPa 0,0 mm 0,0 km/h (0 Bft) W-SW 247 1,6 C 0,0 km/h (0 Bft)
05.11.2015 01:10 2,8 C 2,7 C 91 % 1020,8 hPa 0,0 mm 0,0 km/h (0 Bft) W-SW 247 1,5 C 0,0 km/h (0 Bft)
05.11.2015 01:15 2,9 C 2,7 C 90 % 1020,8 hPa 0,0 mm 0,0 km/h (0 Bft) W-SW 247 1,4 C 0,0 km/h (0 Bft)
05.11.2015 01:20 3,2 C 2,9 C 90 % 1020,8 hPa 0,0 mm 0,0 km/h (0 Bft) SW 225 1,7 C 0,0 km/h (0 Bft)
05.11.2015 01:25 2,7 C 2,6 C 90 % 1020,8 hPa 0,0 mm 0,0 km/h (0 Bft) W-SW 247 1,2 C 0,0 km/h (0 Bft)
05.11.2015 01:30 2,5 C 2,4 C 90 % 1020,9 hPa 0,0 mm 0,0 km/h (0 Bft) W-SW 247 1,0 C 0,0 km/h (0 Bft)
05.11.2015 01:35 2,7 C 2,5 C 90 % 1020,9 hPa 0,0 mm 0,0 km/h (0 Bft) SW 225 1,2 C 0,0 km/h (0 Bft)
05.11.2015 01:40 2,6 C 2,5 C 90 % 1020,9 hPa 0,0 mm 0,0 km/h (0 Bft) SW 225 1,1 C 0,0 km/h (0 Bft)
05.11.2015 01:45 2,6 C 2,5 C 91 % 1020,9 hPa 0,0 mm 0,0 km/h (0 Bft) SW 225 1,3 C 0,0 km/h (0 Bft)
05.11.2015 01:50 2,7 C 2,6 C 90 % 1020,9 hPa 0,0 mm 0,0 km/h (0 Bft) S-SO 157 1,2 C 0,0 km/h (0 Bft)
05.11.2015 01:55 3,3 C 3,4 C 85 % 1020,9 hPa 0,0 mm 0,0 km/h (0 Bft) S-SO 157 1,0 C 0,0 km/h (0 Bft)
05.11.2015 02:00 3,7 C 3,5 C 90 % 1020,9 hPa 0,0 mm 0,0 km/h (0 Bft) S-SW 202 2,2 C 0,0 km/h (0 Bft)
05.11.2015 02:05 2,8 C 3,0 C 91 % 1020,9 hPa 0,0 mm 0,3 km/h (0 Bft) NW 315 1,5 C 0,0 km/h (0 Bft)
05.11.2015 02:10 3,0 C 2,9 C 90 % 1020,9 hPa 0,0 mm 0,3 km/h (0 Bft) N-NW 337 1,5 C 3,6 km/h (1 Bft)
05.11.2015 02:12 3,0 C 2,9 C 90 % 1020,9 hPa 0,0 mm 0,3 km/h (0 Bft) N-NW 337 1,5 C 0,0 km/h (0 Bft)
05.11.2015 02:15 2,9 C 2,9 C 86 % 1020,9 hPa 0,0 mm 0,0 km/h (0 Bft) N-NW 337 0,8 C 0,0 km/h (0 Bft)
05.11.2015 02:20 2,9 C 2,8 C 92 % 1020,9 hPa 0,0 mm 0,0 km/h (0 Bft) W-NW 292 1,7 C 0,0 km/h (0 Bft)
05.11.2015 02:25 3,5 C 3,2 C 86 % 1020,9 hPa 0,0 mm 0,5 km/h (0 Bft) SW 225 1,4 C 6,7 km/h (2 Bft)
05.11.2015 02:30 3,8 C 3,5 C 91 % 1021,1 hPa 0,0 mm 0,8 km/h (0 Bft) O-SO 112 2,5 C 0,0 km/h (0 Bft)
05.11.2015 02:35 3,6 C 3,4 C 91 % 1021,1 hPa 0,0 mm 0,8 km/h (0 Bft) S-SO 157 2,3 C 0,0 km/h (0 Bft)
05.11.2015 02:40 3,1 C 3,0 C 91 % 1021,1 hPa 0,0 mm 0,0 km/h (0 Bft) S-SO 157 1,8 C 0,0 km/h (0 Bft)
05.11.2015 02:45 2,8 C 2,7 C 92 % 1021,1 hPa 0,0 mm 0,0 km/h (0 Bft) S-SO 157 1,6 C 0,0 km/h (0 Bft)
05.11.2015 02:50 2,7 C 2,6 C 92 % 1021,1 hPa 0,0 mm 0,0 km/h (0 Bft) SO 135 1,5 C 0,0 km/h (0 Bft)
05.11.2015 02:55 2,9 C 2,7 C 92 % 1021,1 hPa 0,0 mm 0,0 km/h (0 Bft) SO 135 1,7 C 0,0 km/h (0 Bft)
05.11.2015 03:00 3,0 C 2,8 C 91 % 1021,1 hPa 0,0 mm 0,0 km/h (0 Bft) SO 135 1,7 C 0,0 km/h (0 Bft)
05.11.2015 03:05 2,9 C 2,7 C 92 % 1021,1 hPa 0,0 mm 0,0 km/h (0 Bft) SO 135 1,7 C 0,0 km/h (0 Bft)
05.11.2015 03:10 3,0 C 2,7 C 91 % 1021,0 hPa 0,0 mm 0,0 km/h (0 Bft) SO 135 1,7 C 0,0 km/h (0 Bft)
05.11.2015 03:15 3,0 C 2,8 C 91 % 1021,0 hPa 0,0 mm 0,0 km/h (0 Bft) S 180 1,7 C 0,0 km/h (0 Bft)
05.11.2015 03:20 3,4 C 3,0 C 91 % 1021,0 hPa 0,0 mm 0,0 km/h (0 Bft) S-SO 157 2,1 C 0,0 km/h (0 Bft)
05.11.2015 03:25 3,2 C 3,0 C 91 % 1021,0 hPa 0,0 mm 0,3 km/h (0 Bft) S 180 1,9 C 0,0 km/h (0 Bft)
05.11.2015 03:30 3,5 C 3,4 C 86 % 1021,1 hPa 0,0 mm 0,3 km/h (0 Bft) S-SO 157 1,4 C 0,0 km/h (0 Bft)
05.11.2015 03:35 4,2 C 4,0 C 86 % 1021,1 hPa 0,0 mm 0,5 km/h (0 Bft) S-SO 157 2,1 C 3,4 km/h (1 Bft)
05.11.2015 03:40 4,2 C 4,0 C 92 % 1021,1 hPa 0,0 mm 1,0 km/h (0 Bft) S 180 3,0 C 3,4 km/h (1 Bft)
05.11.2015 03:45 4,5 C 4,3 C 93 % 1021,1 hPa 0,0 mm 2,3 km/h (1 Bft) S 180 3,5 C 0,0 km/h (0 Bft)
05.11.2015 03:50 4,5 C 4,3 C 93 % 1021,1 hPa 0,0 mm 3,4 km/h (1 Bft) S-SO 157 3,5 C 8,0 km/h (2 Bft)
05.11.2015 03:55 4,7 C 4,5 C 93 % 1021,1 hPa 0,0 mm 3,4 km/h (1 Bft) S-SO 157 3,7 C 4,1 km/h (1 Bft)
05.11.2015 04:00 4,7 C 4,5 C 93 % 1021,1 hPa 0,0 mm 3,6 km/h (1 Bft) S 180 3,7 C 13,5 km/h (3 Bft)
05.11.2015 04:05 4,8 C 4,6 C 93 % 1021,1 hPa 0,0 mm 3,1 km/h (1 Bft) SW 225 3,8 C 4,1 km/h (1 Bft)
05.11.2015 04:10 4,9 C 4,7 C 93 % 1021,2 hPa 0,0 mm 2,3 km/h (1 Bft) S 180 3,9 C 2,6 km/h (1 Bft)
05.11.2015 04:15 4,8 C 4,6 C 92 % 1021,2 hPa 0,0 mm 2,8 km/h (1 Bft) S 180 3,6 C 3,6 km/h (1 Bft)
05.11.2015 04:20 4,7 C 4,5 C 92 % 1021,2 hPa 0,0 mm 2,3 km/h (1 Bft) SO 135 3,5 C 0,0 km/h (0 Bft)
05.11.2015 04:25 4,1 C 4,0 C 92 % 1021,2 hPa 0,0 mm 0,3 km/h (0 Bft) SO 135 2,9 C 0,0 km/h (0 Bft)
05.11.2015 04:30 3,8 C 3,7 C 92 % 1021,2 hPa 0,0 mm 0,0 km/h (0 Bft) SO 135 2,6 C 0,0 km/h (0 Bft)
05.11.2015 04:35 3,8 C 3,6 C 91 % 1021,2 hPa 0,0 mm 0,0 km/h (0 Bft) SW 225 2,5 C 4,1 km/h (1 Bft)
05.11.2015 04:40 3,7 C 3,5 C 91 % 1021,2 hPa 0,0 mm 0,0 km/h (0 Bft) SO 135 2,4 C 0,0 km/h (0 Bft)
05.11.2015 04:45 3,6 C 3,4 C 91 % 1021,2 hPa 0,0 mm 0,0 km/h (0 Bft) SO 135 2,3 C 0,0 km/h (0 Bft)
05.11.2015 04:50 3,3 C 3,1 C 91 % 1021,4 hPa 0,0 mm 0,0 km/h (0 Bft) SO 135 2,0 C 0,0 km/h (0 Bft)
05.11.2015 04:55 3,1 C 2,9 C 90 % 1021,4 hPa 0,0 mm 0,0 km/h (0 Bft) SO 135 1,6 C 0,0 km/h (0 Bft)
05.11.2015 05:00 3,1 C 2,9 C 90 % 1021,4 hPa 0,0 mm 0,0 km/h (0 Bft) S 180 1,6 C 0,0 km/h (0 Bft)
05.11.2015 05:05 3,0 C 2,8 C 90 % 1021,4 hPa 0,0 mm 0,0 km/h (0 Bft) SO 135 1,5 C 0,0 km/h (0 Bft)
05.11.2015 05:10 2,8 C 2,7 C 91 % 1021,5 hPa 0,0 mm 0,0 km/h (0 Bft) SO 135 1,5 C 0,0 km/h (0 Bft)
05.11.2015 05:15 2,8 C 2,7 C 91 % 1021,5 hPa 0,0 mm 0,0 km/h (0 Bft) SO 135 1,5 C 0,0 km/h (0 Bft)
05.11.2015 05:20 3,0 C 2,8 C 90 % 1021,5 hPa 0,0 mm 0,0 km/h (0 Bft) SO 135 1,5 C 0,0 km/h (0 Bft)
05.11.2015 05:25 2,7 C 2,5 C 91 % 1021,5 hPa 0,0 mm 0,0 km/h (0 Bft) SW 225 1,4 C 0,0 km/h (0 Bft)
05.11.2015 05:30 2,6 C 2,4 C 91 % 1021,6 hPa 0,0 mm 0,0 km/h (0 Bft) NW 315 1,3 C 0,0 km/h (0 Bft)
05.11.2015 05:35 2,3 C 2,2 C 91 % 1021,6 hPa 0,0 mm 0,0 km/h (0 Bft) NW 315 1,0 C 0,0 km/h (0 Bft)
05.11.2015 05:40 2,2 C 2,1 C 91 % 1021,6 hPa 0,0 mm 0,0 km/h (0 Bft) NW 315 0,9 C 0,0 km/h (0 Bft)
05.11.2015 05:45 2,2 C 2,1 C 91 % 1021,6 hPa 0,0 mm 0,0 km/h (0 Bft) NW 315 0,9 C 0,0 km/h (0 Bft)
05.11.2015 05:50 2,9 C 2,6 C 92 % 1021,8 hPa 0,0 mm 0,0 km/h (0 Bft) W-SW 247 1,7 C 0,0 km/h (0 Bft)
05.11.2015 05:55 2,7 C 2,5 C 92 % 1021,8 hPa 0,0 mm 0,0 km/h (0 Bft) W-SW 247 1,5 C 0,0 km/h (0 Bft)
05.11.2015 06:00 2,3 C 2,2 C 92 % 1021,8 hPa 0,0 mm 0,0 km/h (0 Bft) W-SW 247 1,1 C 0,0 km/h (0 Bft)
05.11.2015 06:05 2,6 C 2,4 C 92 % 1021,8 hPa 0,0 mm 0,0 km/h (0 Bft) W-SW 247 1,4 C 0,0 km/h (0 Bft)
05.11.2015 06:10 2,6 C 2,4 C 92 % 1021,6 hPa 0,0 mm 0,0 km/h (0 Bft) W-SW 247 1,4 C 0,0 km/h (0 Bft)
05.11.2015 06:15 2,6 C 2,4 C 92 % 1021,6 hPa 0,0 mm 0,0 km/h (0 Bft) W-SW 247 1,4 C 0,0 km/h (0 Bft)
05.11.2015 06:20 2,4 C 2,3 C 92 % 1021,6 hPa 0,0 mm 0,0 km/h (0 Bft) W-SW 247 1,2 C 0,0 km/h (0 Bft)
05.11.2015 06:25 2,0 C 2,0 C 92 % 1021,6 hPa 0,0 mm 0,0 km/h (0 Bft) W-SW 247 0,8 C 0,0 km/h (0 Bft)
05.11.2015 06:30 2,1 C 2,0 C 92 % 1021,6 hPa 0,0 mm 0,0 km/h (0 Bft) W-SW 247 0,9 C 0,0 km/h (0 Bft)
05.11.2015 06:35 2,5 C 2,3 C 92 % 1021,6 hPa 0,0 mm 0,0 km/h (0 Bft) W-SW 247 1,3 C 0,0 km/h (0 Bft)
05.11.2015 06:40 2,6 C 2,4 C 92 % 1021,6 hPa 0,0 mm 0,0 km/h (0 Bft) SW 225 1,4 C 0,0 km/h (0 Bft)
05.11.2015 06:45 2,5 C 2,4 C 92 % 1021,6 hPa 0,0 mm 0,0 km/h (0 Bft) SW 225 1,3 C 0,0 km/h (0 Bft)
05.11.2015 06:50 2,6 C 2,5 C 92 % 1021,6 hPa 0,0 mm 0,0 km/h (0 Bft) SW 225 1,4 C 0,0 km/h (0 Bft)
05.11.2015 06:55 2,4 C 2,4 C 92 % 1021,6 hPa 0,0 mm 0,0 km/h (0 Bft) SW 225 1,2 C 0,0 km/h (0 Bft)
05.11.2015 07:00 2,8 C 2,7 C 92 % 1021,6 hPa 0,0 mm 0,0 km/h (0 Bft) SW 225 1,6 C 0,0 km/h (0 Bft)
05.11.2015 07:05 2,4 C 2,5 C 92 % 1021,6 hPa 0,0 mm 0,0 km/h (0 Bft) W-NW 292 1,2 C 0,0 km/h (0 Bft)
05.11.2015 07:10 2,7 C 2,6 C 92 % 1021,7 hPa 0,0 mm 0,0 km/h (0 Bft) NW 315 1,5 C 0,0 km/h (0 Bft)
05.11.2015 07:15 2,6 C 2,6 C 92 % 1021,7 hPa 0,0 mm 0,0 km/h (0 Bft) W-NW 292 1,4 C 0,0 km/h (0 Bft)
05.11.2015 07:20 2,6 C 2,6 C 92 % 1021,7 hPa 0,0 mm 0,0 km/h (0 Bft) W-NW 292 1,4 C 0,0 km/h (0 Bft)
05.11.2015 07:25 2,6 C 2,6 C 92 % 1021,7 hPa 0,0 mm 0,0 km/h (0 Bft) W-NW 292 1,4 C 0,0 km/h (0 Bft)
05.11.2015 07:30 2,7 C 2,6 C 92 % 1021,7 hPa 0,0 mm 0,0 km/h (0 Bft) W-NW 292 1,5 C 0,0 km/h (0 Bft)
05.11.2015 07:35 2,8 C 2,7 C 92 % 1021,7 hPa 0,0 mm 0,0 km/h (0 Bft) W-NW 292 1,6 C 0,0 km/h (0 Bft)
05.11.2015 07:40 3,1 C 2,9 C 91 % 1021,7 hPa 0,0 mm 0,0 km/h (0 Bft) W-NW 292 1,8 C 0,0 km/h (0 Bft)
05.11.2015 07:45 2,9 C 2,8 C 93 % 1021,7 hPa 0,0 mm 0,0 km/h (0 Bft) W-NW 292 1,9 C 0,0 km/h (0 Bft)
05.11.2015 07:50 2,9 C 2,8 C 93 % 1021,6 hPa 0,0 mm 0,0 km/h (0 Bft) W-NW 292 1,9 C 0,0 km/h (0 Bft)
05.11.2015 07:55 2,9 C 2,8 C 93 % 1021,6 hPa 0,0 mm 0,0 km/h (0 Bft) W-NW 292 1,9 C 0,0 km/h (0 Bft)
05.11.2015 08:00 3,0 C 2,8 C 91 % 1021,6 hPa 0,0 mm 0,0 km/h (0 Bft) W-NW 292 1,7 C 0,0 km/h (0 Bft)
05.11.2015 08:05 3,2 C 3,0 C 86 % 1021,6 hPa 0,0 mm 0,0 km/h (0 Bft) W-NW 292 1,1 C 0,0 km/h (0 Bft)
05.11.2015 08:10 3,3 C 3,1 C 86 % 1021,4 hPa 0,0 mm 0,0 km/h (0 Bft) W-NW 292 1,2 C 0,0 km/h (0 Bft)
05.11.2015 08:14 3,3 C 3,1 C 86 % 1021,4 hPa 0,0 mm 0,0 km/h (0 Bft) W-NW 292 1,2 C 0,0 km/h (0 Bft)
05.11.2015 08:15 3,7 C 3,4 C 87 % 1021,4 hPa 0,0 mm 0,0 km/h (0 Bft) W-NW 292 1,7 C 0,0 km/h (0 Bft)
05.11.2015 08:20 3,8 C 3,4 C 92 % 1021,4 hPa 0,0 mm 0,0 km/h (0 Bft) W-NW 292 2,6 C 0,0 km/h (0 Bft)
05.11.2015 08:25 3,9 C 3,5 C 87 % 1021,4 hPa 0,0 mm 0,0 km/h (0 Bft) W-NW 292 1,9 C 0,0 km/h (0 Bft)
05.11.2015 08:30 4,0 C 3,6 C 86 % 1020,9 hPa 0,0 mm 0,0 km/h (0 Bft) W-NW 292 1,9 C 0,0 km/h (0 Bft)
05.11.2015 08:35 4,1 C 3,6 C 87 % 1020,9 hPa 0,0 mm 0,0 km/h (0 Bft) W-NW 292 2,1 C 0,0 km/h (0 Bft)
05.11.2015 08:40 4,2 C 3,6 C 92 % 1020,9 hPa 0,0 mm 0,0 km/h (0 Bft) W-NW 292 3,0 C 0,0 km/h (0 Bft)
05.11.2015 08:45 4,3 C 3,7 C 92 % 1020,9 hPa 0,0 mm 0,0 km/h (0 Bft) W-NW 292 3,1 C 0,0 km/h (0 Bft)
05.11.2015 08:50 4,3 C 3,7 C 92 % 1020,0 hPa 0,0 mm 0,0 km/h (0 Bft) W-NW 292 3,1 C 0,0 km/h (0 Bft)
05.11.2015 08:55 4,3 C 3,8 C 87 % 1020,0 hPa 0,0 mm 0,0 km/h (0 Bft) W-NW 292 2,3 C 0,0 km/h (0 Bft)
05.11.2015 09:00 4,4 C 3,8 C 92 % 1020,0 hPa 0,0 mm 0,0 km/h (0 Bft) W-NW 292 3,2 C 0,0 km/h (0 Bft)
05.11.2015 09:05 4,4 C 3,8 C 87 % 1020,0 hPa 0,0 mm 0,0 km/h (0 Bft) W-NW 292 2,4 C 0,0 km/h (0 Bft)
05.11.2015 09:10 4,5 C 3,9 C 87 % 1019,6 hPa 0,0 mm 0,0 km/h (0 Bft) W-NW 292 2,5 C 0,0 km/h (0 Bft)
05.11.2015 09:15 4,6 C 4,0 C 87 % 1019,6 hPa 0,0 mm 0,0 km/h (0 Bft) W-NW 292 2,6 C 0,0 km/h (0 Bft)
05.11.2015 09:20 4,8 C 4,0 C 92 % 1019,6 hPa 0,0 mm 0,0 km/h (0 Bft) W-NW 292 3,6 C 0,0 km/h (0 Bft)
05.11.2015 09:25 4,9 C 4,2 C 87 % 1019,6 hPa 0,0 mm 0,0 km/h (0 Bft) W-NW 292 2,9 C 0,0 km/h (0 Bft)
05.11.2015 09:30 5,0 C 4,3 C 87 % 1019,1 hPa 0,0 mm 0,0 km/h (0 Bft) W-NW 292 3,0 C 0,0 km/h (0 Bft)
05.11.2015 09:35 5,3 C 4,7 C 87 % 1019,1 hPa 0,0 mm 0,0 km/h (0 Bft) W-NW 292 3,3 C 0,0 km/h (0 Bft)
05.11.2015 09:40 5,6 C 4,9 C 87 % 1019,1 hPa 0,0 mm 0,0 km/h (0 Bft) W-NW 292 3,6 C 0,0 km/h (0 Bft)
05.11.2015 09:45 6,1 C 5,3 C 86 % 1019,1 hPa 0,0 mm 0,0 km/h (0 Bft) W-NW 292 3,9 C 0,0 km/h (0 Bft)
05.11.2015 09:50 6,3 C 5,4 C 86 % 1018,1 hPa 0,0 mm 0,0 km/h (0 Bft) W-NW 292 4,1 C 0,0 km/h (0 Bft)
05.11.2015 09:55 6,7 C 5,5 C 86 % 1018,1 hPa 0,0 mm 0,0 km/h (0 Bft) W-NW 292 4,5 C 0,0 km/h (0 Bft)
05.11.2015 10:00 7,1 C 5,6 C 86 % 1018,1 hPa 0,0 mm 0,0 km/h (0 Bft) W-NW 292 4,9 C 0,0 km/h (0 Bft)
05.11.2015 10:05 7,5 C 6,0 C 86 % 1018,1 hPa 0,0 mm 0,0 km/h (0 Bft) W-NW 292 5,3 C 0,0 km/h (0 Bft)
05.11.2015 10:10 7,8 C 6,1 C 86 % 1017,9 hPa 0,0 mm 0,0 km/h (0 Bft) W-NW 292 5,6 C 0,0 km/h (0 Bft)
05.11.2015 10:15 7,9 C 6,1 C 90 % 1017,9 hPa 0,0 mm 0,0 km/h (0 Bft) W-NW 292 6,4 C 0,0 km/h (0 Bft)
05.11.2015 10:20 7,8 C 6,0 C 90 % 1017,9 hPa 0,0 mm 0,0 km/h (0 Bft) W-NW 292 6,3 C 0,0 km/h (0 Bft)
05.11.2015 10:25 8,2 C 6,3 C 90 % 1017,9 hPa 0,0 mm 0,0 km/h (0 Bft) W-NW 292 6,7 C 0,0 km/h (0 Bft)
05.11.2015 10:30 8,6 C 6,6 C 90 % 1018,1 hPa 0,0 mm 0,0 km/h (0 Bft) W-NW 292 7,1 C 0,0 km/h (0 Bft)
05.11.2015 10:35 8,6 C 6,6 C 89 % 1018,1 hPa 0,0 mm 0,0 km/h (0 Bft) W-NW 292 6,9 C 0,0 km/h (0 Bft)
05.11.2015 10:40 8,6 C 6,6 C 89 % 1018,1 hPa 0,0 mm 0,0 km/h (0 Bft) W-NW 292 6,9 C 0,0 km/h (0 Bft)
05.11.2015 10:45 9,3 C 7,0 C 88 % 1018,1 hPa 0,0 mm 0,0 km/h (0 Bft) W-NW 292 7,4 C 0,0 km/h (0 Bft)
05.11.2015 10:50 9,4 C 7,1 C 88 % 1018,2 hPa 0,0 mm 0,0 km/h (0 Bft) W-NW 292 7,5 C 0,0 km/h (0 Bft)
05.11.2015 10:55 9,6 C 7,2 C 87 % 1018,2 hPa 0,0 mm 0,0 km/h (0 Bft) W-NW 292 7,5 C 0,0 km/h (0 Bft)
05.11.2015 11:00 10,0 C 7,5 C 85 % 1018,2 hPa 0,0 mm 0,0 km/h (0 Bft) W-NW 292 7,6 C 0,0 km/h (0 Bft)
05.11.2015 11:05 10,0 C 7,5 C 84 % 1018,2 hPa 0,0 mm 0,0 km/h (0 Bft) W-NW 292 7,4 C 0,0 km/h (0 Bft)
05.11.2015 11:10 9,9 C 7,4 C 83 % 1018,1 hPa 0,0 mm 0,0 km/h (0 Bft) W-NW 292 7,2 C 0,0 km/h (0 Bft)
05.11.2015 11:15 10,0 C 7,5 C 81 % 1018,1 hPa 0,0 mm 0,0 km/h (0 Bft) W-NW 292 6,9 C 0,0 km/h (0 Bft)
05.11.2015 11:20 10,2 C 7,6 C 80 % 1018,1 hPa 0,0 mm 0,0 km/h (0 Bft) W-NW 292 6,9 C 0,0 km/h (0 Bft)
05.11.2015 11:25 10,6 C 7,9 C 76 % 1018,1 hPa 0,0 mm 0,0 km/h (0 Bft) W-NW 292 6,5 C 0,0 km/h (0 Bft)
05.11.2015 11:30 10,6 C 7,9 C 75 % 1017,4 hPa 0,0 mm 0,0 km/h (0 Bft) W-NW 292 6,4 C 0,0 km/h (0 Bft)
05.11.2015 11:35 10,4 C 7,8 C 75 % 1017,4 hPa 0,0 mm 0,0 km/h (0 Bft) W-NW 292 6,2 C 0,0 km/h (0 Bft)
05.11.2015 11:40 10,8 C 8,0 C 74 % 1017,4 hPa 0,0 mm 0,0 km/h (0 Bft) W-NW 292 6,4 C 0,0 km/h (0 Bft)
05.11.2015 11:45 11,4 C 8,4 C 69 % 1017,4 hPa 0,0 mm 0,0 km/h (0 Bft) W-NW 292 5,9 C 0,0 km/h (0 Bft)
05.11.2015 11:50 11,1 C 8,2 C 70 % 1016,7 hPa 0,0 mm 0,0 km/h (0 Bft) W-NW 292 5,8 C 0,0 km/h (0 Bft)
05.11.2015 11:55 11,5 C 8,5 C 70 % 1016,7 hPa 0,0 mm 0,0 km/h (0 Bft) W-NW 292 6,2 C 0,0 km/h (0 Bft)
05.11.2015 12:00 11,5 C 8,5 C 69 % 1016,7 hPa 0,0 mm 0,0 km/h (0 Bft) W-NW 292 6,0 C 0,0 km/h (0 Bft)
05.11.2015 12:05 11,9 C 8,8 C 67 % 1016,7 hPa 0,0 mm 0,0 km/h (0 Bft) W-NW 292 6,0 C 0,0 km/h (0 Bft)
05.11.2015 12:10 12,0 C 8,8 C 67 % 1016,7 hPa 0,0 mm 0,0 km/h (0 Bft) W-NW 292 6,1 C 0,0 km/h (0 Bft)
05.11.2015 12:15 11,9 C 8,8 C 66 % 1016,7 hPa 0,0 mm 0,0 km/h (0 Bft) W-NW 292 5,8 C 0,0 km/h (0 Bft)
05.11.2015 12:20 12,3 C 9,0 C 66 % 1016,7 hPa 0,0 mm 0,0 km/h (0 Bft) W-NW 292 6,1 C 0,0 km/h (0 Bft)
05.11.2015 12:25 11,9 C 8,8 C 66 % 1016,7 hPa 0,0 mm 0,0 km/h (0 Bft) W-NW 292 5,8 C 0,0 km/h (0 Bft)
05.11.2015 12:30 12,1 C 8,9 C 66 % 1016,5 hPa 0,0 mm 0,0 km/h (0 Bft) W-NW 292 5,9 C 0,0 km/h (0 Bft)
05.11.2015 12:35 12,3 C 9,0 C 64 % 1016,5 hPa 0,0 mm 0,0 km/h (0 Bft) W-NW 292 5,7 C 0,0 km/h (0 Bft)
05.11.2015 12:40 12,4 C 9,1 C 64 % 1016,5 hPa 0,0 mm 0,0 km/h (0 Bft) W-NW 292 5,8 C 0,0 km/h (0 Bft)
05.11.2015 12:45 12,4 C 9,1 C 64 % 1016,5 hPa 0,0 mm 0,0 km/h (0 Bft) W-NW 292 5,8 C 0,0 km/h (0 Bft)
05.11.2015 12:50 12,5 C 9,2 C 64 % 1016,3 hPa 0,0 mm 0,0 km/h (0 Bft) W-NW 292 5,9 C 0,0 km/h (0 Bft)
05.11.2015 12:55 12,6 C 9,2 C 62 % 1016,3 hPa 0,0 mm 0,0 km/h (0 Bft) W-NW 292 5,5 C 0,0 km/h (0 Bft)
05.11.2015 13:00 12,4 C 9,1 C 63 % 1016,3 hPa 0,0 mm 0,0 km/h (0 Bft) W-NW 292 5,6 C 0,0 km/h (0 Bft)
05.11.2015 13:05 12,4 C 9,1 C 64 % 1016,3 hPa 0,0 mm 0,0 km/h (0 Bft) W-NW 292 5,8 C 0,0 km/h (0 Bft)
05.11.2015 13:10 12,4 C 9,1 C 64 % 1021,1 hPa 0,0 mm 0,0 km/h (0 Bft) W-NW 292 5,8 C 0,0 km/h (0 Bft)
05.11.2015 13:15 13,0 C 9,5 C 64 % 1021,1 hPa 0,0 mm 0,0 km/h (0 Bft) W-NW 292 6,4 C 0,0 km/h (0 Bft)
05.11.2015 13:20 13,2 C 9,6 C 63 % 1021,1 hPa 0,0 mm 0,0 km/h (0 Bft) W-NW 292 6,3 C 0,0 km/h (0 Bft)
05.11.2015 13:25 14,2 C 10,3 C 63 % 1021,1 hPa 0,0 mm 0,0 km/h (0 Bft) W-NW 292 7,3 C 0,0 km/h (0 Bft)
05.11.2015 13:30 14,7 C 10,6 C 62 % 1020,3 hPa 0,0 mm 0,0 km/h (0 Bft) W-NW 292 7,5 C 0,0 km/h (0 Bft)
05.11.2015 13:35 14,7 C 10,6 C 60 % 1020,3 hPa 0,0 mm 0,0 km/h (0 Bft) W-NW 292 7,0 C 0,0 km/h (0 Bft)
05.11.2015 13:40 15,3 C 11,0 C 61 % 1020,3 hPa 0,0 mm 0,0 km/h (0 Bft) W-NW 292 7,8 C 0,0 km/h (0 Bft)
05.11.2015 13:45 14,9 C 10,8 C 59 % 1020,3 hPa 0,0 mm 0,0 km/h (0 Bft) W-NW 292 7,0 C 0,0 km/h (0 Bft)
05.11.2015 13:50 15,0 C 10,8 C 60 % 1020,6 hPa 0,0 mm 0,0 km/h (0 Bft) W-NW 292 7,3 C 0,0 km/h (0 Bft)
05.11.2015 13:55 15,7 C 11,3 C 59 % 1020,6 hPa 0,0 mm 0,0 km/h (0 Bft) W-NW 292 7,7 C 0,0 km/h (0 Bft)
05.11.2015 14:00 15,3 C 11,0 C 59 % 1020,6 hPa 0,0 mm 0,0 km/h (0 Bft) W-NW 292 7,3 C 0,0 km/h (0 Bft)
05.11.2015 14:05 15,0 C 10,8 C 59 % 1020,6 hPa 0,0 mm 0,0 km/h (0 Bft) W-NW 292 7,1 C 0,0 km/h (0 Bft)
05.11.2015 14:10 15,2 C 11,0 C 59 % 1021,3 hPa 0,0 mm 0,0 km/h (0 Bft) W-NW 292 7,2 C 0,0 km/h (0 Bft)
05.11.2015 14:14 15,2 C 10,1 C 59 % 1021,3 hPa 0,0 mm 0,0 km/h (0 Bft) W-NW 292 7,2 C 0,0 km/h (0 Bft)
05.11.2015 14:15 15,2 C 10,1 C 59 % 1021,3 hPa 0,0 mm 0,0 km/h (0 Bft) W-NW 292 7,2 C 0,0 km/h (0 Bft)
05.11.2015 14:20 14,8 C 9,9 C 59 % 1021,3 hPa 0,0 mm 0,0 km/h (0 Bft) W-NW 292 6,9 C 0,0 km/h (0 Bft)
05.11.2015 14:25 14,9 C 9,9 C 59 % 1021,3 hPa 0,0 mm 0,0 km/h (0 Bft) W-NW 292 7,0 C 0,0 km/h (0 Bft)
05.11.2015 14:30 14,9 C 9,9 C 59 % 1021,5 hPa 0,0 mm 0,0 km/h (0 Bft) W-NW 292 7,0 C 0,0 km/h (0 Bft)
05.11.2015 14:35 14,8 C 9,9 C 59 % 1021,5 hPa 0,0 mm 0,0 km/h (0 Bft) W-NW 292 6,9 C 0,0 km/h (0 Bft)
05.11.2015 14:40 15,0 C 10,0 C 59 % 1021,5 hPa 0,0 mm 0,0 km/h (0 Bft) W-NW 292 7,1 C 0,0 km/h (0 Bft)
05.11.2015 14:45 14,9 C 9,9 C 59 % 1021,5 hPa 0,0 mm 0,0 km/h (0 Bft) W-NW 292 7,0 C 0,0 km/h (0 Bft)
05.11.2015 14:50 14,8 C 9,9 C 59 % 1021,6 hPa 0,0 mm 0,0 km/h (0 Bft) W-NW 292 6,9 C 0,0 km/h (0 Bft)
05.11.2015 14:55 14,2 C 9,5 C 59 % 1021,6 hPa 0,0 mm 0,0 km/h (0 Bft) W-NW 292 6,3 C 0,0 km/h (0 Bft)
05.11.2015 15:00 14,1 C 9,4 C 60 % 1021,6 hPa 0,0 mm 0,0 km/h (0 Bft) W-NW 292 6,5 C 0,0 km/h (0 Bft)
05.11.2015 15:05 13,8 C 9,2 C 61 % 1021,6 hPa 0,0 mm 0,0 km/h (0 Bft) W-NW 292 6,4 C 0,0 km/h (0 Bft)
05.11.2015 15:10 13,3 C 8,9 C 61 % 1021,6 hPa 0,0 mm 0,0 km/h (0 Bft) W-NW 292 5,9 C 0,0 km/h (0 Bft)
05.11.2015 15:15 13,1 C 8,7 C 62 % 1021,6 hPa 0,0 mm 0,0 km/h (0 Bft) W-NW 292 6,0 C 0,0 km/h (0 Bft)
05.11.2015 15:20 12,9 C 8,6 C 62 % 1021,6 hPa 0,0 mm 0,0 km/h (0 Bft) W-NW 292 5,8 C 0,0 km/h (0 Bft)
05.11.2015 15:25 12,5 C 8,3 C 63 % 1021,6 hPa 0,0 mm 0,0 km/h (0 Bft) W-NW 292 5,7 C 0,0 km/h (0 Bft)
05.11.2015 15:30 12,5 C 8,3 C 64 % 1021,6 hPa 0,0 mm 0,0 km/h (0 Bft) W-NW 292 5,9 C 0,0 km/h (0 Bft)
05.11.2015 15:35 12,2 C 8,1 C 64 % 1021,6 hPa 0,0 mm 0,0 km/h (0 Bft) W-NW 292 5,6 C 0,0 km/h (0 Bft)
05.11.2015 15:40 12,2 C 8,1 C 64 % 1021,6 hPa 0,0 mm 0,0 km/h (0 Bft) W-NW 292 5,6 C 0,0 km/h (0 Bft)
05.11.2015 15:45 11,7 C 7,8 C 65 % 1021,6 hPa 0,0 mm 0,0 km/h (0 Bft) W-NW 292 5,3 C 0,0 km/h (0 Bft)
05.11.2015 15:50 11,6 C 7,7 C 65 % 1021,6 hPa 0,0 mm 0,0 km/h (0 Bft) W-NW 292 5,2 C 0,0 km/h (0 Bft)
05.11.2015 15:55 11,4 C 7,6 C 65 % 1021,6 hPa 0,0 mm 0,0 km/h (0 Bft) W-NW 292 5,1 C 0,0 km/h (0 Bft)
05.11.2015 16:00 11,6 C 7,7 C 65 % 1021,6 hPa 0,0 mm 0,0 km/h (0 Bft) W-NW 292 5,2 C 0,0 km/h (0 Bft)
05.11.2015 16:05 11,8 C 7,9 C 65 % 1021,6 hPa 0,0 mm 0,0 km/h (0 Bft) W-NW 292 5,4 C 0,0 km/h (0 Bft)
05.11.2015 16:10 11,7 C 11,5 C 65 % 1021,4 hPa 0,0 mm 0,0 km/h (0 Bft) S-SO 157 5,3 C 0,0 km/h (0 Bft)
05.11.2015 16:15 11,4 C 11,3 C 65 % 1021,4 hPa 0,0 mm 0,0 km/h (0 Bft) SO 135 5,1 C 0,0 km/h (0 Bft)
05.11.2015 16:20 11,3 C 11,2 C 66 % 1021,4 hPa 0,0 mm 0,0 km/h (0 Bft) S 180 5,2 C 0,0 km/h (0 Bft)
05.11.2015 16:25 11,2 C 11,1 C 66 % 1021,4 hPa 0,0 mm 0,0 km/h (0 Bft) S-SO 157 5,1 C 0,0 km/h (0 Bft)
05.11.2015 16:30 11,1 C 10,9 C 67 % 1021,2 hPa 0,0 mm 0,0 km/h (0 Bft) S-SO 157 5,2 C 0,0 km/h (0 Bft)
05.11.2015 16:35 10,8 C 10,7 C 69 % 1021,2 hPa 0,0 mm 0,0 km/h (0 Bft) S-SO 157 5,3 C 0,0 km/h (0 Bft)
05.11.2015 16:40 10,6 C 10,5 C 69 % 1021,2 hPa 0,0 mm 0,0 km/h (0 Bft) S 180 5,2 C 0,0 km/h (0 Bft)
05.11.2015 16:45 10,4 C 10,2 C 70 % 1021,2 hPa 0,0 mm 0,0 km/h (0 Bft) S-SO 157 5,2 C 0,0 km/h (0 Bft)
05.11.2015 16:50 10,3 C 10,1 C 70 % 1021,2 hPa 0,0 mm 0,0 km/h (0 Bft) S-SO 157 5,1 C 0,0 km/h (0 Bft)
05.11.2015 16:55 9,7 C 9,6 C 70 % 1021,2 hPa 0,0 mm 0,0 km/h (0 Bft) O-SO 112 4,5 C 0,0 km/h (0 Bft)
05.11.2015 17:00 8,8 C 8,8 C 69 % 1021,2 hPa 0,0 mm 0,0 km/h (0 Bft) S-SW 202 3,4 C 0,0 km/h (0 Bft)
05.11.2015 17:05 8,6 C 8,4 C 72 % 1021,2 hPa 0,0 mm 0,0 km/h (0 Bft) S 180 3,8 C 0,0 km/h (0 Bft)
05.11.2015 17:10 8,3 C 8,4 C 71 % 1021,2 hPa 0,0 mm 0,0 km/h (0 Bft) O-SO 112 3,4 C 0,0 km/h (0 Bft)
05.11.2015 17:15 7,8 C 7,6 C 72 % 1021,2 hPa 0,0 mm 0,0 km/h (0 Bft) S-SW 202 3,1 C 0,0 km/h (0 Bft)
05.11.2015 17:20 7,5 C 7,3 C 72 % 1021,2 hPa 0,0 mm 0,0 km/h (0 Bft) S-SW 202 2,8 C 0,0 km/h (0 Bft)
05.11.2015 17:25 7,2 C 7,0 C 73 % 1021,2 hPa 0,0 mm 0,0 km/h (0 Bft) S 180 2,7 C 0,0 km/h (0 Bft)
05.11.2015 17:30 7,1 C 7,1 C 73 % 1021,5 hPa 0,0 mm 0,0 km/h (0 Bft) O-SO 112 2,6 C 0,0 km/h (0 Bft)
05.11.2015 17:35 7,3 C 7,4 C 76 % 1021,5 hPa 0,0 mm 0,0 km/h (0 Bft) SO 135 3,4 C 0,0 km/h (0 Bft)
05.11.2015 17:40 7,6 C 7,5 C 77 % 1021,5 hPa 0,0 mm 0,0 km/h (0 Bft) S-SO 157 3,8 C 2,8 km/h (1 Bft)
05.11.2015 17:45 7,1 C 7,3 C 77 % 1021,5 hPa 0,0 mm 1,6 km/h (1 Bft) S 180 3,3 C 2,8 km/h (1 Bft)
05.11.2015 17:50 7,1 C 7,7 C 78 % 1021,4 hPa 0,0 mm 2,8 km/h (1 Bft) SW 225 3,5 C 3,6 km/h (1 Bft)
05.11.2015 17:55 7,3 C 7,7 C 79 % 1021,4 hPa 0,0 mm 1,3 km/h (1 Bft) S-SO 157 3,9 C 0,0 km/h (0 Bft)
05.11.2015 18:00 7,5 C 7,7 C 79 % 1021,4 hPa 0,0 mm 0,5 km/h (0 Bft) S-SO 157 4,1 C 0,0 km/h (0 Bft)
05.11.2015 18:05 6,5 C 6,9 C 78 % 1021,4 hPa 0,0 mm 0,0 km/h (0 Bft) S-SO 157 2,9 C 0,0 km/h (0 Bft)
05.11.2015 18:10 6,7 C 6,6 C 79 % 1021,4 hPa 0,0 mm 0,0 km/h (0 Bft) SO 135 3,3 C 0,0 km/h (0 Bft)
05.11.2015 18:15 6,5 C 6,4 C 80 % 1021,4 hPa 0,0 mm 0,0 km/h (0 Bft) SO 135 3,3 C 0,0 km/h (0 Bft)
05.11.2015 18:20 6,3 C 6,1 C 80 % 1021,4 hPa 0,0 mm 0,0 km/h (0 Bft) SO 135 3,1 C 0,0 km/h (0 Bft)
05.11.2015 18:25 6,8 C 6,5 C 79 % 1021,4 hPa 0,0 mm 0,0 km/h (0 Bft) SO 135 3,4 C 0,0 km/h (0 Bft)
05.11.2015 18:30 6,3 C 6,0 C 81 % 1021,7 hPa 0,0 mm 0,0 km/h (0 Bft) SO 135 3,3 C 0,0 km/h (0 Bft)
05.11.2015 18:35 5,8 C 5,6 C 81 % 1021,7 hPa 0,0 mm 0,0 km/h (0 Bft) SO 135 2,8 C 0,0 km/h (0 Bft)
05.11.2015 18:40 5,8 C 5,6 C 82 % 1021,7 hPa 0,0 mm 0,0 km/h (0 Bft) O-SO 112 3,0 C 0,0 km/h (0 Bft)
05.11.2015 18:45 5,6 C 5,3 C 82 % 1021,7 hPa 0,0 mm 0,0 km/h (0 Bft) O-SO 112 2,8 C 0,0 km/h (0 Bft)
05.11.2015 18:50 5,6 C 5,3 C 82 % 1021,6 hPa 0,0 mm 0,0 km/h (0 Bft) O-SO 112 2,8 C 0,0 km/h (0 Bft)
05.11.2015 18:55 5,5 C 5,2 C 82 % 1021,6 hPa 0,0 mm 0,0 km/h (0 Bft) O-SO 112 2,7 C 0,0 km/h (0 Bft)
05.11.2015 19:00 5,2 C 5,0 C 82 % 1021,6 hPa 0,0 mm 0,0 km/h (0 Bft) O-SO 112 2,4 C 0,0 km/h (0 Bft)
05.11.2015 19:05 4,7 C 4,6 C 82 % 1021,6 hPa 0,0 mm 0,0 km/h (0 Bft) O-SO 112 1,9 C 0,0 km/h (0 Bft)
05.11.2015 19:10 5,2 C 4,9 C 83 % 1021,5 hPa 0,0 mm 0,0 km/h (0 Bft) O-SO 112 2,6 C 0,0 km/h (0 Bft)
05.11.2015 19:15 5,1 C 4,8 C 84 % 1021,5 hPa 0,0 mm 0,0 km/h (0 Bft) S 180 2,6 C 0,0 km/h (0 Bft)
05.11.2015 19:20 5,0 C 4,7 C 83 % 1021,5 hPa 0,0 mm 0,0 km/h (0 Bft) S 180 2,4 C 0,0 km/h (0 Bft)
05.11.2015 19:25 4,7 C 4,5 C 83 % 1021,5 hPa 0,0 mm 0,0 km/h (0 Bft) S 180 2,1 C 0,0 km/h (0 Bft)
05.11.2015 19:30 4,5 C 4,4 C 83 % 1021,6 hPa 0,0 mm 0,0 km/h (0 Bft) S 180 1,9 C 0,0 km/h (0 Bft)
05.11.2015 19:35 4,5 C 4,3 C 84 % 1021,6 hPa 0,0 mm 0,0 km/h (0 Bft) S 180 2,0 C 0,0 km/h (0 Bft)
05.11.2015 19:40 4,5 C 4,3 C 84 % 1021,6 hPa 0,0 mm 0,0 km/h (0 Bft) O-NO 67 2,0 C 0,0 km/h (0 Bft)
05.11.2015 19:45 4,3 C 4,2 C 84 % 1021,6 hPa 0,0 mm 0,0 km/h (0 Bft) O-SO 112 1,8 C 0,0 km/h (0 Bft)
05.11.2015 19:50 4,6 C 4,3 C 85 % 1021,6 hPa 0,0 mm 0,0 km/h (0 Bft) O-SO 112 2,3 C 0,0 km/h (0 Bft)
05.11.2015 19:55 4,2 C 4,0 C 85 % 1021,6 hPa 0,0 mm 0,0 km/h (0 Bft) NW 315 1,9 C 0,0 km/h (0 Bft)
05.11.2015 20:00 4,1 C 4,0 C 85 % 1021,6 hPa 0,0 mm 0,0 km/h (0 Bft) NW 315 1,8 C 0,0 km/h (0 Bft)
05.11.2015 20:05 4,1 C 3,9 C 85 % 1021,6 hPa 0,0 mm 0,0 km/h (0 Bft) N-NO 22 1,8 C 0,0 km/h (0 Bft)
05.11.2015 20:10 3,9 C 3,8 C 85 % 1021,5 hPa 0,0 mm 0,0 km/h (0 Bft) N-NO 22 1,6 C 0,0 km/h (0 Bft)
05.11.2015 20:14 3,8 C 3,7 C 86 % 1021,5 hPa 0,0 mm 0,0 km/h (0 Bft) N-NO 22 1,7 C 0,0 km/h (0 Bft)
05.11.2015 20:15 3,8 C 3,7 C 86 % 1021,5 hPa 0,0 mm 0,0 km/h (0 Bft) N-NO 22 1,7 C 0,0 km/h (0 Bft)
05.11.2015 20:20 4,0 C 3,8 C 85 % 1021,5 hPa 0,0 mm 0,0 km/h (0 Bft) N-NO 22 1,7 C 0,0 km/h (0 Bft)
05.11.2015 20:25 4,0 C 3,7 C 86 % 1021,5 hPa 0,0 mm 0,0 km/h (0 Bft) N-NO 22 1,9 C 0,0 km/h (0 Bft)
05.11.2015 20:30 4,0 C 3,7 C 86 % 1021,3 hPa 0,0 mm 0,0 km/h (0 Bft) NW 315 1,9 C 0,0 km/h (0 Bft)
05.11.2015 20:35 3,8 C 3,6 C 86 % 1021,3 hPa 0,0 mm 0,0 km/h (0 Bft) NW 315 1,7 C 0,0 km/h (0 Bft)
05.11.2015 20:40 3,6 C 3,4 C 86 % 1021,3 hPa 0,0 mm 0,0 km/h (0 Bft) N-NW 337 1,5 C 0,0 km/h (0 Bft)
05.11.2015 20:45 3,8 C 3,6 C 87 % 1021,3 hPa 0,0 mm 0,0 km/h (0 Bft) N-NW 337 1,8 C 0,0 km/h (0 Bft)
05.11.2015 20:50 3,8 C 3,6 C 87 % 1021,2 hPa 0,0 mm 0,0 km/h (0 Bft) N-NW 337 1,8 C 0,0 km/h (0 Bft)
05.11.2015 20:55 3,4 C 3,3 C 87 % 1021,2 hPa 0,0 mm 0,0 km/h (0 Bft) N-NW 337 1,4 C 0,0 km/h (0 Bft)
05.11.2015 21:01 3,2 C 3,1 C 87 % 1021,2 hPa 0,0 mm 0,0 km/h (0 Bft) N-NW 337 1,2 C 0,0 km/h (0 Bft)
05.11.2015 21:05 3,4 C 3,2 C 87 % 1021,2 hPa 0,0 mm 0,0 km/h (0 Bft) N-NW 337 1,4 C 0,0 km/h (0 Bft)
05.11.2015 21:10 3,4 C 3,1 C 87 % 1021,2 hPa 0,0 mm 0,0 km/h (0 Bft) N-NW 337 1,4 C 0,0 km/h (0 Bft)
05.11.2015 21:15 3,1 C 2,9 C 87 % 1021,2 hPa 0,0 mm 0,0 km/h (0 Bft) N-NW 337 1,2 C 0,0 km/h (0 Bft)
05.11.2015 21:20 3,2 C 3,0 C 87 % 1021,2 hPa 0,0 mm 0,0 km/h (0 Bft) N-NW 337 1,2 C 0,0 km/h (0 Bft)
05.11.2015 21:25 3,4 C 3,2 C 88 % 1021,2 hPa 0,0 mm 0,0 km/h (0 Bft) N-NW 337 1,6 C 0,0 km/h (0 Bft)
05.11.2015 21:30 3,3 C 3,1 C 88 % 1021,4 hPa 0,0 mm 0,0 km/h (0 Bft) N-NW 337 1,5 C 0,0 km/h (0 Bft)
05.11.2015 21:35 3,4 C 3,3 C 88 % 1021,4 hPa 0,0 mm 0,3 km/h (0 Bft) W-SW 247 1,6 C 4,7 km/h (1 Bft)
05.11.2015 21:40 3,5 C 3,5 C 88 % 1021,4 hPa 0,0 mm 0,8 km/h (0 Bft) NO 45 1,7 C 0,0 km/h (0 Bft)
05.11.2015 21:45 3,4 C 3,4 C 88 % 1021,4 hPa 0,0 mm 0,8 km/h (0 Bft) N-NO 22 1,6 C 0,0 km/h (0 Bft)
05.11.2015 21:50 3,4 C 3,4 C 88 % 1021,4 hPa 0,0 mm 0,0 km/h (0 Bft) N-NO 22 1,6 C 0,0 km/h (0 Bft)
05.11.2015 21:55 3,5 C 3,4 C 89 % 1021,4 hPa 0,0 mm 0,3 km/h (0 Bft) S-SW 202 1,9 C 2,8 km/h (1 Bft)
05.11.2015 22:00 3,8 C 3,7 C 89 % 1021,4 hPa 0,0 mm 0,5 km/h (0 Bft) S 180 2,2 C 0,0 km/h (0 Bft)
05.11.2015 22:05 4,4 C 4,3 C 85 % 1021,4 hPa 0,0 mm 0,5 km/h (0 Bft) S 180 2,1 C 0,0 km/h (0 Bft)
05.11.2015 22:10 4,9 C 4,7 C 90 % 1021,4 hPa 0,0 mm 0,5 km/h (0 Bft) S 180 3,4 C 0,0 km/h (0 Bft)
05.11.2015 22:15 5,1 C 4,9 C 90 % 1021,4 hPa 0,0 mm 0,5 km/h (0 Bft) S 180 3,6 C 3,4 km/h (1 Bft)
05.11.2015 22:20 5,2 C 5,0 C 90 % 1021,4 hPa 0,0 mm 0,5 km/h (0 Bft) S-SO 157 3,7 C 2,6 km/h (1 Bft)
05.11.2015 22:25 5,2 C 5,0 C 91 % 1021,4 hPa 0,0 mm 0,8 km/h (0 Bft) S-SO 157 3,9 C 0,0 km/h (0 Bft)
05.11.2015 22:30 4,7 C 4,7 C 90 % 1021,6 hPa 0,0 mm 0,3 km/h (0 Bft) SO 135 3,2 C 0,0 km/h (0 Bft)
05.11.2015 22:35 4,5 C 4,4 C 90 % 1021,6 hPa 0,0 mm 0,3 km/h (0 Bft) S 180 3,0 C 0,0 km/h (0 Bft)
05.11.2015 22:40 4,7 C 4,5 C 90 % 1021,6 hPa 0,0 mm 0,0 km/h (0 Bft) O-SO 112 3,2 C 0,0 km/h (0 Bft)
05.11.2015 22:45 4,0 C 3,9 C 90 % 1021,6 hPa 0,0 mm 0,0 km/h (0 Bft) O-SO 112 2,5 C 0,0 km/h (0 Bft)
05.11.2015 22:50 3,9 C 3,8 C 90 % 1021,4 hPa 0,0 mm 0,0 km/h (0 Bft) O-SO 112 2,4 C 0,0 km/h (0 Bft)
05.11.2015 22:55 3,8 C 3,6 C 90 % 1021,4 hPa 0,0 mm 0,0 km/h (0 Bft) O-SO 112 2,3 C 0,0 km/h (0 Bft)
05.11.2015 23:00 3,8 C 3,5 C 90 % 1021,4 hPa 0,0 mm 0,0 km/h (0 Bft) SO 135 2,3 C 0,0 km/h (0 Bft)
05.11.2015 23:05 3,8 C 3,5 C 90 % 1021,4 hPa 0,0 mm 0,0 km/h (0 Bft) S 180 2,3 C 0,0 km/h (0 Bft)
05.11.2015 23:10 3,6 C 3,4 C 90 % 1021,4 hPa 0,0 mm 0,0 km/h (0 Bft) S-SW 202 2,1 C 0,0 km/h (0 Bft)
05.11.2015 23:15 3,6 C 3,4 C 90 % 1021,4 hPa 0,0 mm 0,0 km/h (0 Bft) S 180 2,1 C 0,0 km/h (0 Bft)
05.11.2015 23:20 3,7 C 3,5 C 90 % 1021,4 hPa 0,0 mm 0,0 km/h (0 Bft) S-SO 157 2,2 C 0,0 km/h (0 Bft)
05.11.2015 23:25 3,4 C 3,2 C 90 % 1021,4 hPa 0,0 mm 0,0 km/h (0 Bft) SW 225 1,9 C 0,0 km/h (0 Bft)
05.11.2015 23:30 3,4 C 3,2 C 90 % 1021,3 hPa 0,0 mm 0,0 km/h (0 Bft) S-SO 157 1,9 C 0,0 km/h (0 Bft)
05.11.2015 23:35 3,6 C 3,3 C 90 % 1021,3 hPa 0,0 mm 0,0 km/h (0 Bft) S-SO 157 2,1 C 0,0 km/h (0 Bft)
05.11.2015 23:40 3,4 C 3,2 C 90 % 1021,3 hPa 0,0 mm 0,0 km/h (0 Bft) S-SO 157 1,9 C 0,0 km/h (0 Bft)
05.11.2015 23:45 3,7 C 3,3 C 90 % 1021,3 hPa 0,0 mm 0,0 km/h (0 Bft) S-SO 157 2,2 C 0,0 km/h (0 Bft)
05.11.2015 23:50 3,8 C 3,5 C 90 % 1021,5 hPa 0,0 mm 0,0 km/h (0 Bft) S-SO 157 2,3 C 0,0 km/h (0 Bft)
05.11.2015 23:55 3,5 C 3,4 C 90 % 1021,5 hPa 0,0 mm 0,0 km/h (0 Bft) S 180 2,0 C 0,0 km/h (0 Bft)
_ Min-Zeit 06:25 06:30 14:55 13:05 - 23:55 - - 02:15 23:55
Minimum _ 2,0 C 2,0 C 59 % 1016,3 hPa - 0,0 km/h (0 Bft) - - 0,8 C 0,0 km/h (0 Bft)
_ Max-Zeit 13:55 16:10 07:55 06:05 23:55 04:00 - - 13:40 04:00
Maximum _ 15,7 C 11,5 C 93 % 1021,8 hPa 0,0 mm 3,6 km/h
S (1 Bft)
- - 7,8 C 13,5 km/h
S (3 Bft)
Durchschnitt _ 6,3 C 5,3 C 82 % 1020,7 hPa #0,0 mm 0,1 km/h (0 Bft) S - 3,3 C 0,3 km/h (0 Bft)